This is the latest recevied weather packets stored in our database for station/object G0AMO. If no packets are shown the sender has not sent any weather packets the latest 10 day(s).
| Time | Temp. | Humidity | Pressure | Rain* | Wind** | Luminosity | Snow |
|---|---|---|---|---|---|---|---|
| 1777548004 | 20° C | 41% | 1021 hPa | 0 mm | - | 1210 W/m² | - |
| 1777545904 | 18.33° C | 42% | 1021.3 hPa | 0 mm | - | 1110 W/m² | - |
| 1777545005 | 18.33° C | 43% | 1021.7 hPa | 0 mm | - | 1057 W/m² | - |
| 1777544404 | 18.33° C | 43% | 1021.7 hPa | 0 mm | - | 1018 W/m² | - |
| 1777543203 | 17.78° C | 43% | 1022 hPa | 0 mm | - | 935 W/m² | - |
| 1777541404 | 16.67° C | 45% | 1022 hPa | 0 mm | - | 798 W/m² | - |
| 1777539904 | 16.11° C | 48% | 1022.2 hPa | 0 mm | - | 676 W/m² | - |
| 1777538704 | 15.56° C | 50% | 1022.2 hPa | 0 mm | - | 578 W/m² | - |
| 1777538104 | 15° C | 51% | 1022.7 hPa | 0 mm | - | 528 W/m² | - |
| 1777535705 | 13.89° C | 54% | 1022.7 hPa | 0 mm | - | 337 W/m² | - |
| 1777527304 | 8.89° C | 75% | 1021 hPa | 0 mm | - | 0 W/m² | - |
| 1777524905 | 8.33° C | 76% | 1022.4 hPa | 0 mm | - | 0 W/m² | - |
| 1777524006 | 8.33° C | 77% | 1021 hPa | 0 mm | - | 0 W/m² | - |
| 1777521904 | 8.89° C | 76% | 1022.4 hPa | 0 mm | - | 0 W/m² | - |
| 1777519205 | 8.89° C | 76% | 1022.7 hPa | 0 mm | - | 0 W/m² | - |
| 1777518304 | 8.89° C | 75% | 1021.3 hPa | 0 mm | - | 0 W/m² | - |
| 1777517704 | 9.44° C | 75% | 1021.3 hPa | 0 mm | - | 0 W/m² | - |
| 1777515304 | 9.44° C | 74% | 1022.4 hPa | 0 mm | - | 0 W/m² | - |
| 1777514104 | 9.44° C | 73% | 1022.7 hPa | 0 mm | - | 0 W/m² | - |
| 1777511105 | 9.44° C | 70% | 1022.1 hPa | 0 mm | - | 0 W/m² | - |
| 1777507204 | 10° C | 64% | 1022 hPa | 0 mm | - | 0 W/m² | - |
| 1777499705 | 11.11° C | 56% | 1022 hPa | 0 mm | - | 0 W/m² | - |
| 1777495804 | 11.67° C | 52% | 1022.4 hPa | 0 mm | - | 0 W/m² | - |
| 1777491604 | 12.78° C | 47% | 1021.7 hPa | 0 mm | - | 0 W/m² | - |
| 1777490404 | 13.33° C | 46% | 1021.7 hPa | 0 mm | - | 0 W/m² | - |
* Rain latest hour (hover to see other rain measurements)
** Current wind speed in m/s (hover to see current wind gust speed)